QPF
0.00 0.00 0.00 0.00 0.00 0.00 0.00 0.00 0.00 0.00 0.00 0.00 0.00 0.00 0.00 0.00 0.00 0.00 0.00 0.00 0.00 0.00 0.00 0.00 0.01 0.01 0.02 0.03 0.03 0.02 0.02 0.04 0.07 0.09 0.13 0.17 0.17 0.17 0.18 0.19 0.21 0.23 0.23 0.24
0.00 0.00 0.00 0.00 0.00 0.00 0.00 0.00 0.00 0.00 0.00 0.00 0.00 0.00 0.00 0.00 0.00 0.00 0.00 0.00 0.00 0.00 0.00 0.01 0.01 0.02 0.03 0.04 0.03 0.02 0.05 0.11 0.16 0.21 0.29 0.36 0.37 0.36 0.37 0.36 0.36 0.34 0.34 0.36
0.00 0.00 0.00 0.00 0.00 0.00 0.00 0.00 0.00 0.00 0.00 0.00 0.00 0.01 0.01 0.01 0.01 0.01 0.01 0.01 0.01 0.01 0.01 0.02 0.03 0.03 0.04 0.04 0.03 0.03 0.06 0.13 0.23 0.35 0.47 0.54 0.58 0.53 0.50 0.43 0.40 0.39 0.39 0.39
0.00 0.00 0.00 0.00 0.00 0.00 0.00 0.00 0.00 0.00 0.00 0.00 0.00 0.00 0.01 0.01 0.01 0.02 0.02 0.02 0.02 0.02 0.03 0.03 0.04 0.04 0.05 0.06 0.06 0.06 0.09 0.16 0.26 0.40 0.52 0.60 0.67 0.66 0.63 0.61 0.55 0.52 0.49 0.47
0.00 0.00 0.00 0.00 0.00 0.00 0.00 0.00 0.00 0.00 0.00 0.00 0.00 0.00 0.01 0.02 0.02 0.03 0.03 0.03 0.04 0.04 0.05 0.05 0.06 0.07 0.07 0.10 0.13 0.14 0.16 0.25 0.37 0.51 0.61 0.65 0.71 0.75 0.74 0.70 0.63 0.52 0.45 0.42
0.00 0.00 0.00 0.00 0.00 0.00 0.00 0.00 0.00 0.00 0.00 0.00 0.00 0.00 0.01 0.02 0.02 0.02 0.03 0.04 0.04 0.06 0.07 0.08 0.09 0.09 0.11 0.14 0.18 0.21 0.24 0.29 0.37 0.47 0.56 0.58 0.62 0.65 0.64 0.59 0.51 0.44 0.39 0.35
0.00 0.00 0.00 0.00 0.00 0.00 0.00 0.00 0.00 0.00 0.00 0.00 0.00 0.01 0.03 0.03 0.02 0.02 0.02 0.03 0.04 0.05 0.07 0.08 0.09 0.11 0.12 0.15 0.18 0.22 0.26 0.29 0.32 0.35 0.41 0.44 0.48 0.48 0.45 0.42 0.38 0.35 0.32 0.26
0.00 0.00 0.00 0.00 0.00 0.00 0.00 0.00 0.00 0.00 0.00 0.00 0.01 0.02 0.05 0.04 0.03 0.02 0.02 0.02 0.03 0.04 0.05 0.06 0.08 0.10 0.12 0.13 0.15 0.17 0.20 0.23 0.26 0.28 0.29 0.29 0.27 0.24 0.21 0.19 0.18 0.18 0.16 0.14
0.00 0.00 0.00 0.00 0.00 0.00 0.00 0.00 0.00 0.00 0.00 0.00 0.01 0.03 0.05 0.05 0.04 0.03 0.03 0.03 0.04 0.04 0.04 0.05 0.06 0.07 0.09 0.09 0.09 0.09 0.10 0.12 0.14 0.15 0.16 0.14 0.12 0.11 0.10 0.10 0.09 0.09 0.08 0.09
0.00 0.00 0.00 0.00 0.00 0.00 0.00 0.00 0.00 0.00 0.00 0.00 0.01 0.03 0.05 0.06 0.05 0.05 0.04 0.05 0.06 0.05 0.05 0.05 0.04 0.04 0.05 0.06 0.06 0.06 0.06 0.07 0.07 0.08 0.08 0.07 0.07 0.07 0.07 0.08 0.08 0.06 0.06 0.06
0.00 0.00 0.00 0.00 0.00 0.00 0.00 0.00 0.00 0.00 0.00 0.00 0.00 0.01 0.04 0.07 0.07 0.06 0.05 0.07 0.08 0.08 0.08 0.07 0.06 0.06 0.07 0.07 0.06 0.06 0.07 0.06 0.05 0.05 0.06 0.05 0.04 0.04 0.04 0.04 0.05 0.05 0.04 0.03
0.00 0.00 0.00 0.00 0.00 0.00 0.00 0.00 0.00 0.00 0.00 0.00 0.00 0.02 0.03 0.04 0.05 0.06 0.07 0.10 0.09 0.08 0.08 0.09 0.11 0.10 0.10 0.10 0.08 0.07 0.05 0.04 0.03 0.03 0.03 0.03 0.03 0.03 0.03 0.02 0.02 0.02 0.02 0.02
0.00 0.00 0.00 0.01 0.00 0.00 0.00 0.00 0.00 0.00 0.00 0.00 0.01 0.02 0.04 0.04 0.04 0.05 0.06 0.08 0.07 0.08 0.10 0.13 0.15 0.14 0.11 0.10 0.10 0.08 0.06 0.04 0.03 0.02 0.02 0.02 0.02 0.02 0.02 0.02 0.02 0.02 0.02 0.02
0.00 0.00 0.00 0.01 0.01 0.01 0.00 0.00 0.00 0.00 0.00 0.00 0.02 0.02 0.03 0.03 0.03 0.04 0.04 0.04 0.06 0.08 0.09 0.10 0.11 0.12 0.11 0.10 0.09 0.08 0.07 0.05 0.04 0.04 0.03 0.02 0.02 0.02 0.02 0.02 0.01 0.01 0.01 0.01
0.00 0.00 0.01 0.01 0.01 0.01 0.00 0.00 0.00 0.00 0.01 0.01 0.03 0.03 0.03 0.04 0.05 0.04 0.03 0.05 0.07 0.08 0.09 0.10 0.10 0.11 0.11 0.10 0.09 0.08 0.08 0.07 0.05 0.04 0.03 0.02 0.01 0.01 0.01 0.01 0.01 0.01 0.01 0.01
0.00 0.00 0.01 0.01 0.01 0.01 0.00 0.01 0.01 0.01 0.02 0.04 0.05 0.05 0.06 0.06 0.07 0.06 0.06 0.06 0.06 0.08 0.10 0.11 0.11 0.11 0.11 0.09 0.09 0.08 0.07 0.06 0.05 0.03 0.02 0.01 0.01 0.01 0.00 0.00 0.00 0.00 0.00 0.00
0.00 0.00 0.00 0.00 0.01 0.00 0.00 0.00 0.01 0.01 0.02 0.05 0.06 0.06 0.08 0.09 0.10 0.08 0.06 0.06 0.06 0.08 0.10 0.11 0.11 0.12 0.11 0.09 0.07 0.06 0.06 0.05 0.03 0.02 0.02 0.02 0.01 0.01 0.01 0.00 0.00 0.00 0.00 0.00
0.00 0.00 0.00 0.00 0.00 0.00 0.00 0.00 0.00 0.01 0.01 0.02 0.03 0.04 0.06 0.07 0.07 0.07 0.07 0.09 0.08 0.07 0.08 0.10 0.10 0.10 0.08 0.07 0.05 0.04 0.03 0.02 0.01 0.01 0.01 0.01 0.01 0.01 0.00 0.00 0.00 0.00 0.00 0.00
0.00 0.00 0.00 0.00 0.00 0.00 0.00 0.00 0.00 0.01 0.01 0.01 0.03 0.03 0.04 0.05 0.06 0.09 0.09 0.11 0.11 0.09 0.09 0.10 0.10 0.09 0.07 0.05 0.03 0.02 0.01 0.00 0.01 0.01 0.00 0.00 0.00 0.00 0.00 0.00 0.00 0.00 0.00 0.00
0.00 0.00 0.00 0.00 0.00 0.00 0.00 0.00 0.01 0.01 0.01 0.01 0.02 0.05 0.08 0.10 0.09 0.10 0.09 0.09 0.10 0.11 0.11 0.08 0.06 0.05 0.04 0.03 0.02 0.01 0.00 0.00 0.01 0.00 0.00 0.00 0.00 0.00 0.00 0.00 0.00 0.00 0.00 0.00
0.00 0.00 0.00 0.00 0.00 0.00 0.00 0.01 0.02 0.01 0.01 0.02 0.02 0.03 0.06 0.12 0.13 0.09 0.06 0.05 0.06 0.07 0.07 0.06 0.04 0.03 0.02 0.01 0.01 0.00 0.00 0.00 0.00 0.00 0.00 0.00 0.00 0.00 0.00 0.00 0.00 0.00 0.00 0.00
0.00 0.00 0.00 0.00 0.00 0.00 0.00 0.00 0.01 0.01 0.00 0.01 0.02 0.02 0.02 0.03 0.05 0.05 0.04 0.03 0.02 0.02 0.02 0.02 0.01 0.01 0.01 0.00 0.00 0.00 0.00 0.00 0.00 0.00 0.00 0.00 0.00 0.00 0.00 0.00 0.00 0.00 0.00 0.00
0.00 0.00 0.00 0.00 0.00 0.00 0.00 0.00 0.00 0.00 0.01 0.01 0.01 0.01 0.01 0.01 0.01 0.01 0.01 0.01 0.01 0.01 0.01 0.01 0.00 0.00 0.00 0.00 0.00 0.00 0.00 0.00 0.00 0.00 0.00 0.00 0.00 0.00 0.00 0.00 0.00 0.00 0.00 0.00
0.00 0.00 0.00 0.00 0.00 0.00 0.00 0.00 0.00 0.00 0.01 0.01 0.00 0.00 0.00 0.01 0.01 0.01 0.01 0.01 0.01 0.00 0.00 0.00 0.00 0.00 0.00 0.00 0.00 0.00 0.00 0.00 0.00 0.00 0.00 0.00 0.00 0.00 0.00 0.00 0.00 0.00 0.00 0.00
0.00 0.00 0.00 0.00 0.00 0.00 0.00 0.00 0.00 0.00 0.00 0.00 0.00 0.00 0.00 0.01 0.01 0.01 0.01 0.01 0.00 0.00 0.00 0.00 0.00 0.00 0.00 0.00 0.00 0.00 0.00 0.00 0.00 0.00 0.00 0.00 0.00 0.00 0.00 0.00 0.00 0.00 0.00 0.00
0.00 0.00 0.00 0.00 0.00 0.00 0.00 0.00 0.00 0.00 0.00 0.00 0.00 0.00 0.00 0.00 0.00 0.00 0.01 0.00 0.00 0.00 0.00 0.00 0.00 0.00 0.00 0.00 0.00 0.00 0.00 0.00 0.00 0.00 0.00 0.00 0.00 0.00 0.00 0.00 0.00 0.00 0.00 0.00
MSLP
1012.51 1013.18 1013.62 1013.80 1013.75 1013.52 1013.18 1012.81 1012.48 1012.21 1012.00 1011.85 1011.72 1011.59 1011.44 1011.27 1011.11 1010.97 1010.90 1010.89 1010.97 1011.10 1011.27 1011.42 1011.54 1011.59 1011.60 1011.57 1011.55 1011.58 1011.70 1011.94 1012.31 1012.78 1013.32 1013.90 1014.46 1014.99 1015.44 1015.83 1016.15 1016.42 1016.68 1016.93
1012.54 1013.11 1013.45 1013.56 1013.48 1013.27 1013.00 1012.76 1012.57 1012.46 1012.42 1012.40 1012.38 1012.33 1012.23 1012.08 1011.92 1011.78 1011.70 1011.68 1011.74 1011.84 1011.95 1012.04 1012.06 1012.00 1011.88 1011.71 1011.55 1011.45 1011.48 1011.65 1011.99 1012.46 1013.05 1013.69 1014.34 1014.95 1015.50 1015.96 1016.35 1016.69 1016.99 1017.26
1012.40 1012.84 1013.08 1013.12 1013.03 1012.88 1012.73 1012.64 1012.65 1012.74 1012.87 1013.02 1013.11 1013.14 1013.08 1012.94 1012.78 1012.62 1012.50 1012.46 1012.49 1012.56 1012.63 1012.66 1012.61 1012.46 1012.22 1011.95 1011.68 1011.49 1011.43 1011.55 1011.87 1012.35 1012.98 1013.69 1014.42 1015.12 1015.75 1016.31 1016.77 1017.17 1017.51 1017.82
1012.11 1012.42 1012.54 1012.54 1012.46 1012.39 1012.39 1012.49 1012.71 1013.02 1013.35 1013.66 1013.88 1013.98 1013.95 1013.82 1013.62 1013.43 1013.28 1013.20 1013.19 1013.23 1013.26 1013.26 1013.16 1012.96 1012.67 1012.33 1012.00 1011.74 1011.65 1011.74 1012.04 1012.54 1013.19 1013.94 1014.74 1015.51 1016.22 1016.85 1017.38 1017.82 1018.20 1018.53
1011.77 1011.92 1011.94 1011.89 1011.84 1011.87 1012.03 1012.34 1012.78 1013.30 1013.83 1014.30 1014.63 1014.80 1014.80 1014.66 1014.44 1014.20 1014.00 1013.88 1013.83 1013.84 1013.86 1013.84 1013.74 1013.54 1013.24 1012.90 1012.55 1012.29 1012.17 1012.26 1012.55 1013.05 1013.72 1014.49 1015.31 1016.12 1016.88 1017.54 1018.11 1018.59 1018.99 1019.32
1011.45 1011.45 1011.37 1011.28 1011.27 1011.40 1011.71 1012.21 1012.85 1013.57 1014.28 1014.89 1015.32 1015.55 1015.57 1015.42 1015.17 1014.89 1014.65 1014.49 1014.42 1014.42 1014.44 1014.45 1014.38 1014.22 1013.97 1013.67 1013.36 1013.13 1013.04 1013.13 1013.42 1013.91 1014.56 1015.32 1016.13 1016.93 1017.68 1018.34 1018.92 1019.40 1019.80 1020.13
1011.21 1011.07 1010.91 1010.81 1010.83 1011.05 1011.49 1012.14 1012.95 1013.83 1014.67 1015.38 1015.89 1016.16 1016.20 1016.04 1015.77 1015.47 1015.21 1015.03 1014.95 1014.96 1015.02 1015.08 1015.08 1015.01 1014.85 1014.64 1014.42 1014.25 1014.20 1014.31 1014.60 1015.06 1015.67 1016.38 1017.14 1017.89 1018.59 1019.21 1019.75 1020.21 1020.59 1020.91
1011.09 1010.86 1010.65 1010.53 1010.60 1010.89 1011.42 1012.18 1013.09 1014.06 1014.97 1015.74 1016.29 1016.59 1016.64 1016.49 1016.22 1015.92 1015.66 1015.50 1015.45 1015.50 1015.62 1015.76 1015.86 1015.90 1015.87 1015.78 1015.67 1015.59 1015.60 1015.74 1016.02 1016.45 1016.99 1017.62 1018.29 1018.95 1019.57 1020.12 1020.60 1021.01 1021.35 1021.65
1011.11 1010.83 1010.60 1010.51 1010.61 1010.95 1011.53 1012.33 1013.27 1014.25 1015.18 1015.95 1016.51 1016.81 1016.87 1016.75 1016.51 1016.24 1016.02 1015.91 1015.91 1016.04 1016.24 1016.48 1016.70 1016.88 1016.98 1017.03 1017.04 1017.06 1017.14 1017.30 1017.57 1017.96 1018.43 1018.96 1019.52 1020.07 1020.58 1021.04 1021.44 1021.78 1022.08 1022.35
1011.25 1010.99 1010.80 1010.74 1010.88 1011.24 1011.83 1012.61 1013.50 1014.43 1015.30 1016.02 1016.54 1016.83 1016.90 1016.81 1016.63 1016.44 1016.30 1016.26 1016.36 1016.57 1016.88 1017.23 1017.57 1017.88 1018.12 1018.29 1018.43 1018.55 1018.69 1018.88 1019.15 1019.48 1019.88 1020.32 1020.76 1021.20 1021.60 1021.95 1022.27 1022.55 1022.80 1023.03
1011.52 1011.33 1011.22 1011.23 1011.41 1011.77 1012.31 1013.01 1013.80 1014.61 1015.36 1015.98 1016.42 1016.68 1016.77 1016.73 1016.63 1016.54 1016.51 1016.59 1016.80 1017.12 1017.53 1017.98 1018.44 1018.86 1019.21 1019.50 1019.74 1019.95 1020.15 1020.38 1020.64 1020.93 1021.26 1021.61 1021.96 1022.29 1022.59 1022.86 1023.10 1023.31 1023.51 1023.70
1011.88 1011.82 1011.82 1011.91 1012.13 1012.48 1012.95 1013.53 1014.17 1014.81 1015.39 1015.87 1016.23 1016.45 1016.55 1016.58 1016.57 1016.60 1016.70 1016.92 1017.24 1017.67 1018.18 1018.72 1019.26 1019.77 1020.22 1020.60 1020.92 1021.20 1021.45 1021.70 1021.96 1022.23 1022.51 1022.79 1023.07 1023.31 1023.54 1023.73 1023.90 1024.06 1024.22 1024.37
1012.32 1012.41 1012.55 1012.73 1012.98 1013.31 1013.70 1014.13 1014.59 1015.03 1015.44 1015.77 1016.03 1016.21 1016.33 1016.42 1016.53 1016.69 1016.93 1017.27 1017.71 1018.24 1018.82 1019.44 1020.04 1020.60 1021.11 1021.55 1021.92 1022.25 1022.54 1022.82 1023.08 1023.34 1023.59 1023.82 1024.04 1024.24 1024.40 1024.55 1024.67 1024.79 1024.90 1025.02
1012.84 1013.09 1013.35 1013.62 1013.91 1014.20 1014.49 1014.78 1015.05 1015.31 1015.54 1015.73 1015.89 1016.03 1016.18 1016.35 1016.56 1016.85 1017.22 1017.68 1018.23 1018.83 1019.47 1020.13 1020.76 1021.34 1021.88 1022.34 1022.76 1023.11 1023.43 1023.72 1023.99 1024.24 1024.48 1024.69 1024.88 1025.04 1025.17 1025.28 1025.37 1025.45 1025.53 1025.61
1013.42 1013.81 1014.18 1014.52 1014.82 1015.07 1015.27 1015.43 1015.54 1015.63 1015.70 1015.78 1015.87 1015.99 1016.17 1016.41 1016.73 1017.14 1017.62 1018.18 1018.80 1019.46 1020.14 1020.80 1021.43 1022.02 1022.55 1023.02 1023.44 1023.81 1024.15 1024.45 1024.72 1024.97 1025.20 1025.40 1025.56 1025.70 1025.81 1025.90 1025.96 1026.02 1026.07 1026.12
1014.07 1014.54 1014.98 1015.37 1015.67 1015.88 1016.00 1016.04 1016.02 1015.98 1015.95 1015.94 1015.99 1016.12 1016.33 1016.65 1017.07 1017.57 1018.15 1018.78 1019.45 1020.14 1020.81 1021.46 1022.08 1022.64 1023.15 1023.61 1024.03 1024.40 1024.73 1025.04 1025.31 1025.56 1025.77 1025.96 1026.11 1026.23 1026.33 1026.39 1026.44 1026.47 1026.49 1026.51
1014.75 1015.26 1015.74 1016.12 1016.40 1016.57 1016.62 1016.58 1016.48 1016.36 1016.26 1016.22 1016.26 1016.42 1016.69 1017.07 1017.57 1018.15 1018.79 1019.47 1020.17 1020.86 1021.52 1022.14 1022.71 1023.24 1023.72 1024.16 1024.56 1024.91 1025.24 1025.54 1025.80 1026.04 1026.24 1026.41 1026.54 1026.65 1026.72 1026.77 1026.80 1026.81 1026.81 1026.79
1015.44 1015.94 1016.39 1016.75 1016.99 1017.11 1017.12 1017.04 1016.90 1016.75 1016.64 1016.61 1016.68 1016.88 1017.21 1017.67 1018.23 1018.86 1019.54 1020.25 1020.94 1021.61 1022.24 1022.82 1023.35 1023.84 1024.28 1024.69 1025.06 1025.40 1025.70 1025.98 1026.22 1026.44 1026.62 1026.76 1026.87 1026.95 1027.01 1027.04 1027.04 1027.04 1027.02 1026.98
1016.10 1016.54 1016.93 1017.24 1017.43 1017.52 1017.50 1017.40 1017.27 1017.14 1017.07 1017.09 1017.22 1017.49 1017.88 1018.40 1019.01 1019.68 1020.37 1021.07 1021.75 1022.39 1022.97 1023.50 1023.99 1024.43 1024.83 1025.20 1025.54 1025.85 1026.13 1026.38 1026.60 1026.78 1026.92 1027.03 1027.12 1027.17 1027.20 1027.21 1027.21 1027.18 1027.15 1027.10
1016.66 1017.03 1017.34 1017.58 1017.73 1017.79 1017.77 1017.69 1017.60 1017.54 1017.54 1017.63 1017.85 1018.19 1018.65 1019.22 1019.86 1020.54 1021.24 1021.92 1022.56 1023.15 1023.69 1024.17 1024.61 1025.01 1025.37 1025.70 1026.00 1026.28 1026.52 1026.73 1026.90 1027.05 1027.15 1027.23 1027.28 1027.30 1027.32 1027.31 1027.30 1027.27 1027.24 1027.18
1017.10 1017.37 1017.61 1017.78 1017.90 1017.95 1017.95 1017.92 1017.91 1017.93 1018.03 1018.22 1018.53 1018.95 1019.47 1020.08 1020.74 1021.42 1022.10 1022.74 1023.34 1023.88 1024.36 1024.79 1025.18 1025.53 1025.85 1026.14 1026.41 1026.64 1026.84 1027.01 1027.14 1027.23 1027.30 1027.34 1027.36 1027.36 1027.36 1027.35 1027.34 1027.32 1027.29 1027.24
1017.37 1017.56 1017.73 1017.86 1017.95 1018.02 1018.06 1018.11 1018.19 1018.33 1018.54 1018.84 1019.24 1019.73 1020.30 1020.94 1021.60 1022.27 1022.91 1023.50 1024.05 1024.54 1024.97 1025.34 1025.68 1025.98 1026.26 1026.50 1026.72 1026.91 1027.07 1027.19 1027.27 1027.32 1027.35 1027.36 1027.35 1027.34 1027.34 1027.34 1027.33 1027.33 1027.31 1027.28
1017.45 1017.58 1017.70 1017.81 1017.92 1018.02 1018.14 1018.28 1018.47 1018.72 1019.04 1019.45 1019.94 1020.49 1021.11 1021.75 1022.41 1023.04 1023.64 1024.18 1024.67 1025.10 1025.47 1025.79 1026.08 1026.33 1026.56 1026.76 1026.93 1027.07 1027.18 1027.25 1027.30 1027.31 1027.30 1027.29 1027.27 1027.25 1027.25 1027.26 1027.28 1027.30 1027.30 1027.29
1017.35 1017.45 1017.55 1017.67 1017.81 1017.98 1018.18 1018.43 1018.74 1019.11 1019.54 1020.04 1020.60 1021.21 1021.85 1022.49 1023.12 1023.72 1024.27 1024.76 1025.18 1025.55 1025.86 1026.14 1026.37 1026.57 1026.75 1026.90 1027.02 1027.12 1027.18 1027.21 1027.22 1027.20 1027.17 1027.14 1027.12 1027.11 1027.12 1027.14 1027.18 1027.22 1027.26 1027.26
1017.10 1017.18 1017.30 1017.45 1017.65 1017.90 1018.21 1018.57 1018.99 1019.48 1020.01 1020.60 1021.22 1021.86 1022.50 1023.14 1023.74 1024.29 1024.78 1025.21 1025.58 1025.89 1026.15 1026.37 1026.55 1026.70 1026.83 1026.94 1027.02 1027.07 1027.09 1027.09 1027.07 1027.03 1026.99 1026.96 1026.94 1026.93 1026.96 1027.00 1027.06 1027.12 1027.17 1027.20
1016.72 1016.82 1016.96 1017.17 1017.45 1017.80 1018.21 1018.69 1019.23 1019.82 1020.44 1021.09 1021.75 1022.42 1023.06 1023.67 1024.23 1024.74 1025.18 1025.55 1025.87 1026.12 1026.33 1026.50 1026.64 1026.75 1026.83 1026.90 1026.94 1026.96 1026.95 1026.93 1026.89 1026.85 1026.81 1026.77 1026.76 1026.77 1026.81 1026.86 1026.94 1027.01 1027.07 1027.11
Thickness
5652 5644 5643 5652 5662 5670 5677 5680 5681 5694 5712 5712 5709 5712 5721 5731 5734 5736 5739 5744 5748 5752 5757 5761 5764 5766 5768 5768 5767 5767 5764 5762 5759 5755 5751 5746 5741 5736 5732 5729 5725 5722 5719 5716
5639 5642 5656 5664 5667 5670 5673 5674 5680 5694 5708 5709 5704 5704 5713 5720 5723 5726 5730 5734 5739 5742 5747 5751 5754 5757 5759 5761 5762 5762 5760 5758 5756 5753 5749 5742 5735 5729 5725 5720 5716 5713 5710 5707
5639 5649 5663 5663 5665 5667 5671 5673 5682 5689 5697 5703 5702 5694 5700 5708 5714 5717 5719 5723 5728 5732 5736 5739 5742 5745 5748 5749 5751 5753 5753 5753 5752 5748 5742 5735 5728 5721 5716 5711 5705 5701 5698 5695
5642 5654 5660 5661 5664 5668 5665 5684 5687 5689 5683 5678 5691 5674 5686 5696 5700 5704 5707 5711 5716 5721 5726 5729 5731 5734 5737 5740 5743 5745 5746 5745 5744 5741 5736 5730 5722 5714 5707 5700 5693 5690 5687 5684
5642 5654 5657 5659 5667 5674 5676 5690 5690 5689 5683 5675 5679 5672 5673 5690 5690 5692 5696 5701 5705 5710 5714 5717 5720 5723 5726 5729 5732 5734 5735 5735 5735 5732 5728 5722 5713 5705 5697 5690 5683 5678 5674 5673
5648 5661 5666 5669 5680 5682 5685 5684 5679 5672 5669 5661 5673 5669 5667 5678 5683 5686 5688 5691 5694 5699 5702 5705 5708 5711 5713 5715 5718 5719 5720 5719 5719 5718 5715 5710 5702 5694 5685 5677 5670 5665 5661 5658
5644 5658 5670 5678 5676 5681 5678 5662 5648 5653 5647 5651 5667 5664 5663 5676 5683 5682 5681 5682 5684 5687 5690 5692 5693 5695 5697 5699 5701 5703 5703 5701 5700 5699 5696 5692 5686 5680 5673 5664 5658 5653 5648 5644
5633 5641 5667 5676 5676 5672 5671 5665 5647 5645 5645 5646 5659 5657 5661 5671 5674 5675 5674 5674 5675 5675 5676 5677 5677 5679 5680 5681 5682 5684 5684 5683 5681 5678 5674 5670 5667 5664 5657 5651 5645 5640 5634 5629
5635 5644 5672 5681 5686 5681 5669 5664 5668 5653 5650 5642 5645 5651 5657 5663 5664 5665 5665 5664 5663 5662 5662 5661 5661 5662 5662 5663 5663 5664 5665 5663 5661 5658 5654 5651 5648 5644 5639 5633 5628 5623 5618 5614
5649 5648 5664 5675 5682 5679 5677 5667 5655 5647 5637 5632 5638 5643 5646 5653 5654 5654 5653 5652 5650 5649 5648 5646 5645 5645 5644 5644 5644 5644 5644 5643 5641 5639 5636 5631 5628 5624 5620 5615 5610 5605 5600 5596
5653 5647 5653 5662 5658 5660 5667 5662 5651 5641 5643 5632 5627 5632 5649 5651 5650 5646 5642 5640 5637 5636 5634 5632 5630 5629 5629 5628 5627 5626 5625 5623 5621 5619 5615 5612 5608 5604 5601 5596 5591 5586 5583 5579
5650 5640 5638 5651 5663 5667 5664 5658 5651 5643 5635 5633 5629 5628 5645 5646 5643 5638 5633 5629 5625 5622 5619 5618 5616 5614 5613 5611 5610 5607 5605 5604 5601 5599 5597 5594 5590 5586 5582 5578 5573 5570 5566 5562
5650 5639 5631 5637 5644 5652 5652 5652 5648 5640 5630 5624 5622 5624 5634 5634 5630 5627 5622 5618 5614 5610 5607 5605 5602 5600 5597 5594 5592 5590 5587 5585 5583 5581 5578 5575 5572 5568 5564 5559 5556 5552 5548 5544
5651 5633 5629 5628 5631 5638 5639 5642 5645 5639 5625 5622 5625 5624 5623 5621 5619 5615 5611 5607 5602 5598 5595 5592 5588 5584 5581 5578 5575 5573 5570 5568 5565 5563 5560 5556 5553 5549 5545 5541 5538 5534 5530 5526
5645 5628 5629 5630 5636 5636 5631 5632 5635 5632 5629 5623 5622 5621 5618 5615 5611 5606 5601 5596 5592 5587 5583 5579 5574 5570 5566 5563 5560 5558 5554 5551 5549 5546 5542 5539 5535 5532 5528 5524 5520 5517 5513 5508
5633 5626 5625 5622 5627 5628 5622 5622 5623 5622 5620 5619 5616 5610 5610 5605 5601 5595 5591 5587 5582 5578 5572 5567 5562 5558 5554 5549 5546 5542 5539 5536 5533 5530 5527 5523 5519 5516 5512 5508 5504 5499 5495 5491
5623 5622 5614 5611 5620 5620 5605 5606 5609 5607 5607 5607 5604 5602 5599 5594 5589 5585 5580 5577 5571 5566 5560 5555 5550 5545 5540 5536 5532 5529 5525 5522 5520 5516 5513 5509 5505 5501 5498 5494 5489 5484 5479 5475
5622 5611 5601 5602 5609 5597 5599 5608 5606 5600 5596 5597 5595 5592 5588 5582 5575 5571 5568 5565 5559 5553 5548 5543 5537 5531 5526 5523 5520 5516 5513 5511 5507 5504 5500 5496 5493 5489 5484 5480 5475 5470 5465 5461
5622 5613 5600 5592 5591 5592 5599 5601 5598 5593 5586 5587 5585 5580 5574 5569 5565 5557 5554 5551 5547 5541 5536 5531 5525 5521 5516 5512 5509 5506 5502 5499 5496 5492 5489 5485 5481 5476 5472 5467 5462 5457 5453 5448
5617 5610 5598 5590 5588 5584 5591 5598 5599 5591 5579 5579 5577 5571 5566 5563 5556 5547 5542 5538 5534 5529 5524 5519 5515 5510 5505 5502 5499 5496 5491 5489 5486 5482 5479 5475 5471 5466 5460 5455 5451 5446 5441 5435
5607 5599 5589 5584 5582 5583 5592 5594 5594 5579 5575 5573 5569 5563 5559 5553 5547 5539 5532 5527 5523 5519 5514 5510 5505 5500 5496 5493 5490 5486 5483 5480 5477 5473 5470 5465 5461 5456 5451 5446 5440 5435 5429 5424
5601 5594 5586 5579 5578 5580 5589 5589 5581 5575 5571 5567 5560 5554 5548 5542 5536 5530 5524 5518 5514 5509 5504 5500 5495 5490 5487 5485 5482 5478 5475 5472 5469 5465 5461 5457 5452 5448 5443 5436 5430 5424 5419 5413
5599 5595 5587 5582 5578 5581 5580 5579 5575 5570 5565 5559 5552 5546 5542 5535 5528 5522 5516 5510 5505 5501 5496 5491 5487 5483 5479 5477 5475 5471 5468 5465 5461 5457 5453 5449 5444 5439 5434 5429 5423 5417 5411 5406
5602 5594 5588 5584 5583 5580 5576 5572 5568 5565 5559 5553 5547 5541 5536 5529 5521 5514 5508 5502 5497 5492 5488 5484 5481 5477 5474 5471 5468 5465 5463 5459 5455 5451 5447 5443 5438 5433 5428 5423 5418 5412 5406 5401
5605 5596 5587 5583 5581 5577 5573 5567 5561 5556 5551 5545 5539 5534 5528 5522 5514 5508 5501 5496 5491 5487 5482 5478 5475 5472 5469 5466 5463 5460 5457 5453 5449 5446 5442 5437 5433 5429 5423 5418 5413 5409 5404 5399
5603 5597 5591 5587 5585 5577 5570 5563 5558 5552 5545 5539 5533 5525 5520 5516 5509 5502 5495 5490 5486 5482 5477 5473 5470 5467 5464 5461 5458 5456 5453 5449 5446 5442 5438 5434 5430 5425 5421 5416 5411 5407 5403 5400